Regional Weather Roundup
Issued by NWS

Home | Current Version | Previous Version | Graphics & Text | Print | Product List | Glossary Off
Versions: 1 2 3 4 5 6 7 8 9 10 11 12 13 14 15 16 17 18 19 20 21 22 23 24 25 26 27 28 29 30 31 32 33 34 35 36 37 38 39 40 41 42 43 44 45 46 47 48 49 50

000
ASUS43 KMKX 300411
RWRWI

WISCONSIN REGIONAL WEATHER ROUNDUP
NATIONAL WEATHER SERVICE MILWAUKEE/SULLIVAN WI
1100 PM CDT FRI APR 29 2016

NOTE: "FAIR" INDICATES FEW OR NO CLOUDS BELOW 12,000 FEET WITH NO
SIGNIFICANT WEATHER AND/OR OBSTRUCTIONS TO VISIBILITY.

WIZ001-002-006>008-014>016-023>028-300500-
NORTHWEST WISCONSIN

CITY           SKY/WX    TMP DP  RH WIND       PRES   REMARKS
SUPERIOR ARPT  CLEAR     37  32  84 E3        30.23F
ASHLAND        CLEAR     32  30  92 NE3       30.23S
HAYWARD        CLEAR     38  28  67 NE7       30.18S WCI  33
SIREN          CLEAR     46  30  52 E7        30.17S
CUMBERLAND     CLEAR     43  32  65 NE8       30.14F
RICE LAKE      CLEAR     45  32  59 NE6       30.16F
CHETEK         MOCLDY    47  32  55 NE5       30.14F
LADYSMITH      CLEAR     45  32  60 NE9       30.16F
EAU CLAIRE     CLOUDY    43  38  82 N3        30.11F
MENOMONIE      MOCLDY    44  37  77 CALM      30.12F
NEW RICHMOND   MOCLDY    49  32  51 NE9       30.13S
OSCEOLA        CLEAR     50  33  51 NE9       30.16S
$$

WIZ003>005-009-010-017-018-300500-
NORTH CENTRAL WISCONSIN

CITY           SKY/WX    TMP DP  RH WIND       PRES   REMARKS
MANITOWISH WTR CLEAR     40  30  67 NE3       30.18S
ARBOR VITAE    CLEAR     43  31  62 NE6       30.16S
WOODRUFF       CLEAR     43  31  62 NE6       30.16S
RHINELANDER    CLEAR     44  32  62 CALM      30.16R
EAGLE RIVER    CLEAR     40  27  59 NE8       30.16S WCI  34
LAND O LAKES   CLEAR     42  28  58 NE5       30.19R
PHILLIPS       CLEAR     42  31  65 NE8       30.15S
TOMAHAWK       CLEAR     44  34  67 CALM      30.16R
MEDFORD        CLEAR     41  37  86 E5        30.13F
MERRILL        NOT AVBL
$$

WIZ029-030-035-036-043>047-300500-
CENTRAL WISCONSIN

CITY           SKY/WX    TMP DP  RH WIND       PRES   REMARKS
WAUSAU         CLEAR     46  34  62 E5        30.13S
MOSINEE        CLEAR     43  34  70 E5        30.15S
MARSHFIELD     CLEAR     45  35  68 E5        30.12S
STEVENS POINT  CLEAR     38  33  82 NE3       30.14F
WAUPACA        CLEAR     44  34  66 CALM      30.15R
WAUTOMA        CLEAR     40  34  79 CALM      30.15R
WISC RAPIDS    CLOUDY    46  33  60 SE5       30.14S
CAMP DOUGLAS   CLOUDY    37  37 100 NE2       30.11F
$$

WIZ011>013-019>022-031-037>040-048>050-300500-
NORTHEAST WISCONSIN

CITY           SKY/WX    TMP DP  RH WIND       PRES   REMARKS
ANTIGO         CLEAR     39  33  79 CALM      30.15S
SHAWANO        CLEAR     44  33  65 CALM      30.16S
OCONTO         PTCLDY    37  32  84 CALM      30.16S
STURGEON BAY   CLEAR     39  28  65 CALM      30.18S
GREEN BAY      CLEAR     44  32  62 CALM      30.16S
MANITOWOC      CLEAR     39  33  79 N3        30.16F
APPLETON       PTCLDY    45  30  57 SE3       30.14S
CLINTONVILLE   MOCLDY    41  34  75 NE3       30.15R
OSHKOSH        CLEAR     43  30  60 CALM      30.14S
$$

WIZ032>034-041-042-053>061-300500-
SOUTHWEST WISCONSIN

CITY           SKY/WX    TMP DP  RH WIND       PRES   REMARKS
LA CROSSE      CLOUDY    47  40  76 SE3       30.10F
SPARTA         CLOUDY    40  38  96 CALM      30.11F
VIROQUA        CLOUDY    42  37  83 E5        30.10S
BOSCOBEL       CLOUDY    39  37  92 CALM      30.10F
PRAIRIE DU CHI PTCLDY    44  39  82 CALM      30.08F
PLATTEVILLE    PTCLDY    42  39  89 E5        30.09S
$$

WIZ056-057-062-063-064-067-068-300500-
SOUTH CENTRAL WISCONSIN

CITY           SKY/WX    TMP DP  RH WIND       PRES   REMARKS
REEDSBURG      CLEAR     42  37  81 CALM      30.12S
BARABOO/DELLS  CLEAR     43  34  72 E5        30.12S
LONE ROCK      CLOUDY    40  38  93 NE3       30.11F
MINERAL POINT  CLOUDY    43  39  87 E5        30.09S
MADISON        CLOUDY    42  35  76 E8        30.12F
MIDDLETON      CLOUDY    46  37  71 E9        30.12F
WATERTOWN      CLEAR     38  35  88 E6        30.12F WCI  34
MONROE         PTCLDY    41  37  87 E6        30.10S
JANESVILLE     CLEAR     41  39  93 E6        30.11F
$$

WIZ051-052-058>065-066-070>072-300500-
SOUTHEAST WISCONSIN

CITY           SKY/WX    TMP DP  RH WIND       PRES   REMARKS
MILWAUKEE      CLOUDY    42  35  76 NE5       30.14F
WAUKESHA       CLOUDY    37  32  81 NE5       30.15S WCI  34
MILWAUKEE/TIMM CLOUDY    41  32  70 CALM      30.15F
RACINE         CLOUDY    43  34  70 NE6       30.15F
BURLINGTON     CLOUDY    40  34  78 E6        30.13F
KENOSHA        CLOUDY    42  35  76 NE7       30.14F
FOND DU LAC    CLEAR     41  30  65 SE6       30.14S
SHEBOYGAN      CLEAR     35  30  82 CALM      30.15S
WEST BEND      CLEAR     37  32  81 CALM      30.14F
JUNEAU         CLEAR     40  34  78 E5        30.14F
$$

LSZ147-162-300500-
LAKE SUPERIOR

STATION/POSITION TIME  TEMP    WIND        PRES    WAVE
                       AIR SEA DIR/SP/G            HT/PER
                 (UTC) (F)     (DEG/KT/KT) (MB)    (FT/S)
W MID LAKE BUOY  0350   38 36   20/  6/  6 1024.8R   1
DEVILS ISLAND    0400   39      90/  5/  5 1024.8R
SAXON HARBOR     0300   38      20/  5/  6 1023.0
$$

LMZ867-665-643>646-300500-
LAKE MICHIGAN

STATION/POSITION TIME  TEMP    WIND        PRES    WAVE
                       AIR SEA DIR/SP/G            HT/PER
                 (UTC) (F)     (DEG/KT/KT) (MB)    (FT/S)
CHAMBERS ISLAND  0300   41      CALM  /  2 1021.7
N MID LAKE BUOY  0350   42 38   10/  8/  8 1021.6F   0
NORTHPORT PIER   0400   42     290/  2/  8 1021.3F
ALGOMA LAKESHORE 0315          330/  5/  6   N/A
KEWAUNEE LAKESHO 0300   41                   N/A
SHEBOYGAN LAKESH 0400   43      20/  1/  2 1021.9S
PORT WASHINGTON  0300   42     360/  2/  4 1021.7F
S MID LAKE BUOY  0350   41 40   70/  8/ 10 1020.9R   1/ 3
KENOSHA   LAKESH 0400   42      40/  8/  8 1020.3F
$$

TC  - TEMPERATURE IN CELSIUS
VSB - VISIBILITY IN STATUTE MILES
WCI - WIND CHILL INDEX
HX  - HEAT INDEX





USA.gov is the U.S. government's official web portal to all federal, state and local government web resources and services.